Date String (YYYY-MM-DD hh:mm:ss) UTC,Instrument flags,Ambient pressure (hPa),Sample flow (lpm),Bypass flow (lpm),Sample temperature (°C),Ambient temperature (°C),ASC tube jacket temperature (°C),LED temperature (°C),Box temperature (°C),Sample RH (%),Span deviation,Mass concentration (μg/m³),Mass concentration (μg/m³),Mass concentration (μg/m³)
DateTimeUTC,F1_M11,P_M11,Q1_M11,Q2_M11,T1_M11,T2_M11,T3_M11,T4_M11,T5_M11,U1_M11,ZSPAN_M11,X0_M11,X2_M11,X1_M11
2022-06-22 01:00:00,,0833.5,5.00,0.00,29.5,27.6,00.0,38.2,31.2,13.3,0000.0,0007.76,0003.27,0001.68
2022-06-22 01:01:00,,0833.5,5.00,0.00,29.5,27.5,00.0,38.2,31.2,13.4,0000.0,0007.91,0003.30,0001.69
2022-06-22 01:02:00,,0833.5,5.00,0.00,29.4,27.6,00.0,38.2,31.2,13.5,0000.0,0007.77,0003.31,0001.70
2022-06-22 01:03:00,,0833.4,5.01,0.00,29.4,27.7,00.0,38.2,31.2,13.5,0000.0,0007.00,0003.24,0001.69
2022-06-22 01:04:00,,0833.5,5.00,0.00,29.4,27.9,00.0,38.2,31.3,13.5,0000.0,0007.15,0003.18,0001.69
2022-06-22 01:05:00,,0833.6,5.00,0.00,29.4,28.0,00.0,38.2,31.3,13.4,0000.0,0007.66,0003.18,0001.69
2022-06-22 01:06:00,,0833.5,5.00,0.00,29.4,28.2,00.0,38.2,31.4,13.3,0000.0,0007.75,0003.18,0001.69
2022-06-22 01:07:00,,0833.5,5.01,0.00,29.5,28.3,00.0,38.2,31.4,13.3,0000.0,0007.78,0003.18,0001.68
2022-06-22 01:08:00,,0833.5,5.00,0.00,29.5,28.4,00.0,38.2,31.5,13.4,0000.0,0007.72,0003.14,0001.66
2022-06-22 01:09:00,,0833.5,5.00,0.00,29.5,28.6,00.0,38.3,31.5,13.3,0000.0,0007.83,0003.16,0001.66
2022-06-22 01:10:00,,0833.6,5.00,0.00,29.6,28.7,00.0,38.3,31.6,13.3,0000.0,0007.90,0003.17,0001.66
2022-06-22 01:11:00,,0833.5,4.99,0.00,29.6,28.7,00.0,38.3,31.6,13.3,0000.0,0008.44,0003.20,0001.65
2022-06-22 01:12:00,,0833.5,5.00,0.00,29.6,28.3,00.0,38.3,31.5,13.3,0000.0,0008.61,0003.22,0001.65
2022-06-22 01:13:00,,0833.5,5.00,0.00,29.5,27.3,00.0,38.2,31.2,13.5,0000.0,0008.88,0003.19,0001.63
2022-06-22 01:14:00,,0833.5,5.01,0.00,29.4,26.9,00.0,38.1,31.1,13.7,0000.0,0008.91,0003.19,0001.62
2022-06-22 01:15:00,,0833.5,4.99,0.00,29.3,26.9,00.0,38.1,31.0,13.8,0000.0,0008.56,0003.21,0001.62
2022-06-22 01:16:00,,0833.5,5.00,0.00,29.3,27.0,00.0,38.1,31.0,13.9,0000.0,0008.36,0003.19,0001.60
2022-06-22 01:17:00,,0833.6,5.00,0.00,29.3,27.2,00.0,38.1,31.0,13.8,0000.0,0008.91,0003.22,0001.58
2022-06-22 01:18:00,,0833.5,5.01,0.00,29.3,27.4,00.0,38.1,31.1,13.7,0000.0,0009.02,0003.22,0001.57
2022-06-22 01:19:00,,0833.5,5.00,0.00,29.3,27.6,00.0,38.1,31.1,13.6,0000.0,0009.07,0003.25,0001.57
2022-06-22 01:20:00,,0833.5,5.00,0.00,29.3,27.8,00.0,38.1,31.2,13.5,0000.0,0008.97,0003.22,0001.56
2022-06-22 01:21:00,,0833.6,4.99,0.00,29.3,27.9,00.0,38.1,31.2,13.6,0000.0,0009.16,0003.24,0001.56
2022-06-22 01:22:00,,0833.6,5.01,0.00,29.3,28.1,00.0,38.1,31.3,13.7,0000.0,0008.64,0003.23,0001.55
2022-06-22 01:23:00,,0833.5,5.00,0.00,29.3,28.2,00.0,38.1,31.3,13.6,0000.0,0008.33,0003.19,0001.53
2022-06-22 01:24:00,,0833.5,4.99,0.00,29.4,28.3,00.0,38.1,31.3,13.6,0000.0,0008.01,0003.16,0001.51
2022-06-22 01:25:00,,0833.5,5.01,0.00,29.4,28.4,00.0,38.2,31.4,13.5,0000.0,0008.03,0003.17,0001.52
2022-06-22 01:26:00,,0833.6,5.00,0.00,29.4,28.5,00.0,38.2,31.4,13.5,0000.0,0007.95,0003.16,0001.50
2022-06-22 01:27:00,,0833.6,5.00,0.00,29.5,28.6,00.0,38.2,31.5,13.5,0000.0,0007.70,0003.16,0001.50
2022-06-22 01:28:00,,0833.6,4.99,0.00,29.5,28.7,00.0,38.2,31.5,13.5,0000.0,0006.90,0003.11,0001.51
2022-06-22 01:29:00,,0833.6,5.00,0.00,29.5,28.8,00.0,38.3,31.5,13.5,0000.0,0006.75,0003.11,0001.52
2022-06-22 01:30:00,,0833.6,5.00,0.00,29.6,28.8,00.0,38.3,31.5,13.5,0000.0,0006.83,0003.07,0001.52
2022-06-22 01:31:00,,0833.6,4.99,0.00,29.6,28.0,00.0,38.2,31.4,13.5,0000.0,0007.39,0003.03,0001.52
2022-06-22 01:32:00,,0833.6,5.00,0.00,29.5,27.5,00.0,38.2,31.3,13.6,0000.0,0007.51,0002.95,0001.52
2022-06-22 01:33:00,,0833.6,5.00,0.00,29.5,27.5,00.0,38.2,31.2,13.6,0000.0,0007.96,0002.96,0001.52
2022-06-22 01:34:00,,0833.6,5.01,0.00,29.4,27.5,00.0,38.2,31.2,13.7,0000.0,0008.10,0003.01,0001.52
2022-06-22 01:35:00,,0833.6,5.00,0.00,29.4,27.7,00.0,38.2,31.2,13.8,0000.0,0008.56,0003.02,0001.53
2022-06-22 01:36:00,,0833.6,5.01,0.00,29.4,27.8,00.0,38.2,31.3,13.8,0000.0,0008.61,0003.06,0001.53
2022-06-22 01:37:00,,0833.6,5.00,0.00,29.4,28.0,00.0,38.2,31.3,13.9,0000.0,0008.59,0003.06,0001.53
2022-06-22 01:38:00,,0833.7,5.00,0.00,29.4,28.1,00.0,38.2,31.3,13.9,0000.0,0008.89,0003.02,0001.53
2022-06-22 01:39:00,,0833.7,5.01,0.00,29.4,28.2,00.0,38.2,31.4,13.9,0000.0,0009.02,0002.98,0001.52
2022-06-22 01:40:00,,0833.7,5.00,0.00,29.5,28.4,00.0,38.2,31.4,14.0,0000.0,0009.08,0002.97,0001.50
2022-06-22 01:41:00,,0833.7,4.99,0.00,29.5,28.5,00.0,38.2,31.5,14.0,0000.0,0008.99,0002.93,0001.49
2022-06-22 01:42:00,,0833.8,5.01,0.00,29.5,28.6,00.0,38.3,31.5,13.9,0000.0,0008.64,0002.98,0001.49
2022-06-22 01:43:00,,0833.8,5.00,0.00,29.6,28.7,00.0,38.3,31.5,13.9,0000.0,0008.38,0003.05,0001.47
2022-06-22 01:44:00,,0833.8,4.98,0.00,29.6,28.7,00.0,38.3,31.6,13.9,0000.0,0008.03,0003.08,0001.47
2022-06-22 01:45:00,,0833.8,5.01,0.00,29.6,28.7,00.0,38.3,31.6,13.9,0000.0,0007.97,0002.99,0001.46
2022-06-22 01:46:00,,0833.8,5.00,0.00,29.6,28.0,00.0,38.3,31.4,13.8,0000.0,0007.90,0002.98,0001.45
2022-06-22 01:47:00,,0833.8,4.99,0.00,29.5,27.5,00.0,38.2,31.3,13.8,0000.0,0008.16,0003.00,0001.44
2022-06-22 01:48:00,,0833.8,5.00,0.00,29.5,27.5,00.0,38.2,31.2,13.8,0000.0,0008.19,0003.00,0001.44
2022-06-22 01:49:00,,0833.9,5.00,0.00,29.4,27.5,00.0,38.2,31.2,13.8,0000.0,0008.24,0003.12,0001.45
2022-06-22 01:50:00,,0833.9,4.99,0.00,29.4,27.7,00.0,38.2,31.2,13.8,0000.0,0008.08,0003.13,0001.44
2022-06-22 01:51:00,,0833.9,5.01,0.00,29.4,27.8,00.0,38.2,31.3,13.8,0000.0,0007.99,0003.06,0001.43
2022-06-22 01:52:00,,0833.9,5.00,0.00,29.4,28.0,00.0,38.2,31.3,13.7,0000.0,0008.10,0003.08,0001.44
2022-06-22 01:53:00,,0833.9,5.00,0.00,29.4,28.1,00.0,38.2,31.3,13.7,0000.0,0008.66,0003.14,0001.44
2022-06-22 01:54:00,,0833.9,5.00,0.00,29.5,28.2,00.0,38.2,31.4,13.7,0000.0,0009.06,0003.14,0001.45
2022-06-22 01:55:00,,0833.9,5.01,0.00,29.5,28.4,00.0,38.3,31.4,13.7,0000.0,0009.39,0003.14,0001.47
2022-06-22 01:56:00,,0833.8,4.99,0.00,29.5,28.5,00.0,38.3,31.5,13.7,0000.0,0009.23,0003.13,0001.47
2022-06-22 01:57:00,,0833.9,5.01,0.00,29.5,28.6,00.0,38.3,31.5,13.7,0000.0,0009.28,0003.15,0001.48
2022-06-22 01:58:00,,0833.9,4.99,0.00,29.6,28.7,00.0,38.3,31.5,13.7,0000.0,0009.11,0003.13,0001.48
2022-06-22 01:59:00,,0833.9,5.00,0.00,29.6,28.7,00.0,38.3,31.6,13.7,0000.0,0009.08,0003.14,0001.49
